Location: Champignolles
(47.0543°N, 4.5663°E)
Time: 04:31:55
(UTC+00:00)

ISS - Pass Details

Date: 30 November 2020
Orbit: 418 x 419 km, 51.6° (Epoch: 19 January)

Event Time Altitude Azimuth Distance (km) Brightness Sun altitude
Rises 18:39:24 0° 293° (WNW) 2,370 1.0 -27.3°
Reaches altitude 10° 18:41:33 10° 299° (WNW) 1,503 -0.2 -27.7°
Enters shadow 18:42:25 17° 303° (WNW) 1,159 -1.0 -27.8°
